Location: Unspecified
(49.2170°N, 0.0000°E)
Time: 10:16:21
(UTC+00:00)

Vanguard 1 - Visible Passes

Search period start: 18 June 2021 00:00
Search period end: 28 June 2021 00:00
Orbit: 650 x 3832 km, 34.2° (Epoch: 17 June)

Date Brightness Start Highest point End Pass type
(mag) Time Alt. Az. Time Alt. Az. Time Alt. Az.
18 Jun 12.0 01:59:32 10° W 02:12:37 32° SSW 02:20:38 10° SSE visible
18 Jun 12.7 21:29:33 10° SW 21:49:30 41° SSE 22:03:17 10° E visible
18 Jun 12.2 23:54:11 10° WSW 00:12:20 45° S 00:23:12 10° ESE visible
19 Jun 12.1 02:21:00 10° W 02:33:00 28° SSW 02:40:38 10° SSE visible
19 Jun 12.6 21:49:58 10° SW 22:10:24 45° S 22:24:11 10° ESE visible
20 Jun 12.2 00:15:20 10° WSW 00:33:04 43° SSW 00:43:41 10° SE visible
20 Jun 12.2 02:42:43 10° W 02:53:14 23° SW 03:00:18 10° S visible
20 Jun 12.6 22:10:38 10° WSW 22:31:18 47° S 22:44:59 10° ESE visible
21 Jun 12.2 00:36:35 10° W 00:53:43 41° SSW 01:04:04 10° SE visible
21 Jun 12.4 03:04:48 10° W 03:13:20 18° SW 03:19:32 10° S visible
21 Jun 12.5 22:31:29 10° WSW 22:52:11 48° S 23:05:43 10° ESE visible
22 Jun 12.3 00:57:56 10° W 01:14:15 37° SSW 01:24:17 10° SE visible
22 Jun 13.0 20:28:20 10° SW 20:49:22 44° SSE 21:05:41 10° E visible
22 Jun 12.5 22:52:29 10° WSW 23:13:03 48° S 23:26:21 10° ESE visible
23 Jun 12.3 01:19:25 10° W 01:34:39 32° SSW 01:44:18 10° SSE visible
23 Jun 12.9 20:48:45 10° SW 21:10:15 47° SSE 21:26:37 10° ESE visible
23 Jun 12.5 23:13:37 10° WSW 23:33:51 47° SSW 23:46:51 10° SE visible
24 Jun 12.5 01:41:06 10° W 01:54:55 28° SW 02:04:03 10° SSE visible
24 Jun 12.8 21:09:24 10° WSW 21:31:11 50° S 21:47:28 10° ESE visible
24 Jun 12.5 23:34:51 10° W 23:54:34 44° SSW 00:07:16 10° SE visible
25 Jun 12.6 02:03:06 10° W 02:15:02 22° SW 02:23:24 10° S visible
25 Jun 12.8 21:30:13 10° WSW 21:52:07 51° S 22:08:14 10° ESE visible
25 Jun 12.6 23:56:12 10° W 00:15:10 41° SSW 00:27:31 10° SE visible
26 Jun 12.8 02:25:40 10° W 02:35:01 17° SW 02:42:06 10° SSW visible
26 Jun 12.8 21:51:11 10° WSW 22:13:03 51° S 22:28:55 10° ESE visible
27 Jun 12.6 00:17:39 10° W 00:35:37 36° SSW 00:47:33 10° SSE visible
27 Jun 12.8 02:49:40 10° WSW 02:54:51 12° WSW 02:59:19 10° SW visible
27 Jun 12.8 22:12:15 10° WSW 22:33:55 50° SSW 22:49:29 10° SE visible
